When you browse on this site, cookies collect data to enhance your experience and personalize the content and advertising you see.
Visit our Privacy Policy to learn more. By continuing to use the site, you agree to this use of cookies and data.
  • în România
  • Lista ţărilor
  • Pe 7 zile
  • Temperatura apei
  • Hartă satelitară
  • Meteo pe hartă
  • Widget-uri
  • user-avatar
    Intrare

    Meteo pe oră la Kolesovka

    Astăzi, 17 Iulie, Miercuri

    Timp Temperatura Precipitaţii Vânt Presiune Umiditate
    00:00 +16°C° 0 mm 0 m/s 742 mmHg 85%
    01:00 +16°C° 0 mm 0 m/s 742 mmHg 85%
    02:00 +16°C° 0 mm 0 m/s 742 mmHg 85%
    03:00 +18°C° 0 mm 1 m/s 742 mmHg 84%
    04:00 +16°C° 0.2 mm 1 m/s 742 mmHg 86%
    05:00 +16°C° 0.2 mm 1 m/s 742 mmHg 89%
    06:00 +16°C° 0.2 mm 1 m/s 742 mmHg 91%
    07:00 +16°C° 0 mm 1 m/s 741 mmHg 91%
    08:00 +16°C° 0 mm 1 m/s 741 mmHg 91%
    09:00 +16°C° 0 mm 2 m/s 741 mmHg 91%
    10:00 +17°C° 0.1 mm 2 m/s 741 mmHg 90%
    11:00 +17°C° 0.1 mm 3 m/s 741 mmHg 88%
    12:00 +18°C° 0.1 mm 3 m/s 741 mmHg 87%
    13:00 +18°C° 0.1 mm 3 m/s 740 mmHg 85%
    14:00 +19°C° 0.1 mm 3 m/s 740 mmHg 82%
    15:00 +20°C° 0.1 mm 3 m/s 739 mmHg 80%
    16:00 +20°C° 0 mm 3 m/s 739 mmHg 80%
    17:00 +20°C° 0 mm 2 m/s 739 mmHg 79%
    18:00 +20°C° 0 mm 2 m/s 739 mmHg 79%
    19:00 +18°C° 0 mm 2 m/s 739 mmHg 84%
    20:00 +17°C° 0 mm 2 m/s 739 mmHg 88%
    21:00 +16°C° 0 mm 1 m/s 739 mmHg 93%
    22:00 +15°C° 0 mm 1 m/s 739 mmHg 93%
    23:00 +15°C° 0 mm 1 m/s 738 mmHg 94%

    Mâine, 18 Iulie, Joi

    Timp Temperatura Precipitaţii Vânt Presiune Umiditate
    00:00 +13°C° 0 mm 0 m/s 738 mmHg 94%
    01:00 +13°C° 0 mm 0 m/s 738 mmHg 94%
    02:00 +13°C° 0 mm 0 m/s 738 mmHg 94%
    03:00 +14°C° 0 mm 1 m/s 738 mmHg 95%
    04:00 +14°C° 0 mm 1 m/s 738 mmHg 95%
    05:00 +15°C° 0 mm 1 m/s 738 mmHg 95%
    06:00 +15°C° 0 mm 2 m/s 739 mmHg 95%
    07:00 +17°C° 0 mm 2 m/s 739 mmHg 89%
    08:00 +18°C° 0 mm 3 m/s 739 mmHg 84%
    09:00 +19°C° 0 mm 4 m/s 739 mmHg 78%
    10:00 +20°C° 0 mm 4 m/s 739 mmHg 73%
    11:00 +21°C° 0 mm 4 m/s 739 mmHg 68%
    12:00 +22°C° 0 mm 5 m/s 739 mmHg 63%
    13:00 +22°C° 0.1 mm 5 m/s 739 mmHg 62%
    14:00 +22°C° 0.1 mm 5 m/s 740 mmHg 61%
    15:00 +23°C° 0.1 mm 6 m/s 740 mmHg 61%
    16:00 +22°C° 0 mm 5 m/s 740 mmHg 64%
    17:00 +22°C° 0 mm 5 m/s 740 mmHg 67%
    18:00 +21°C° 0 mm 5 m/s 740 mmHg 70%
    19:00 +19°C° 0 mm 4 m/s 740 mmHg 75%
    20:00 +18°C° 0 mm 4 m/s 740 mmHg 81%
    21:00 +16°C° 0 mm 3 m/s 740 mmHg 87%
    22:00 +16°C° 0 mm 3 m/s 741 mmHg 88%
    23:00 +14°C° 0 mm 3 m/s 741 mmHg 90%

    Poimâine, 19 Iulie, Vineri

    Timp Temperatura Precipitaţii Vânt Presiune Umiditate
    00:00 +14°C° 0 mm 3 m/s 741 mmHg 92%
    01:00 +13°C° 0 mm 3 m/s 741 mmHg 93%
    02:00 +13°C° 0 mm 3 m/s 741 mmHg 94%
    03:00 +12°C° 0 mm 3 m/s 741 mmHg 95%
    04:00 +13°C° 0 mm 4 m/s 741 mmHg 94%
    05:00 +13°C° 0 mm 4 m/s 741 mmHg 93%
    06:00 +14°C° 0 mm 5 m/s 741 mmHg 92%
    07:00 +15°C° 0 mm 5 m/s 741 mmHg 86%
    08:00 +17°C° 0 mm 6 m/s 742 mmHg 80%
    09:00 +19°C° 0 mm 6 m/s 742 mmHg 75%
    10:00 +20°C° 0.1 mm 6 m/s 742 mmHg 72%
    11:00 +21°C° 0.1 mm 7 m/s 742 mmHg 70%
    12:00 +22°C° 0.1 mm 7 m/s 742 mmHg 68%
    13:00 +22°C° 0.4 mm 7 m/s 742 mmHg 69%
    14:00 +22°C° 0.4 mm 7 m/s 742 mmHg 70%
    15:00 +22°C° 0.4 mm 7 m/s 742 mmHg 71%
    16:00 +21°C° 0 mm 7 m/s 743 mmHg 73%
    17:00 +20°C° 0 mm 7 m/s 743 mmHg 74%
    18:00 +20°C° 0 mm 6 m/s 743 mmHg 75%
    19:00 +19°C° 0 mm 5 m/s 743 mmHg 79%
    20:00 +17°C° 0 mm 5 m/s 743 mmHg 83%
    21:00 +17°C° 0 mm 4 m/s 744 mmHg 87%
    22:00 +15°C° 0 mm 4 m/s 744 mmHg 89%
    23:00 +15°C° 0 mm 4 m/s 744 mmHg 90%

    20 Iulie, Sâmbătă

    Timp Temperatura Precipitaţii Vânt Presiune Umiditate
    00:00 +15°C° 0 mm 5 m/s 744 mmHg 91%
    01:00 +14°C° 0 mm 4 m/s 744 mmHg 92%
    02:00 +14°C° 0 mm 4 m/s 744 mmHg 93%
    03:00 +13°C° 0 mm 4 m/s 744 mmHg 94%
    04:00 +13°C° 0 mm 4 m/s 745 mmHg 93%
    05:00 +14°C° 0 mm 4 m/s 745 mmHg 91%
    06:00 +14°C° 0 mm 5 m/s 745 mmHg 90%
    07:00 +15°C° 0 mm 5 m/s 745 mmHg 84%
    08:00 +17°C° 0 mm 5 m/s 746 mmHg 79%
    09:00 +19°C° 0 mm 6 m/s 746 mmHg 73%
    10:00 +20°C° 0 mm 6 m/s 746 mmHg 71%
    11:00 +21°C° 0 mm 7 m/s 746 mmHg 68%
    12:00 +22°C° 0 mm 7 m/s 746 mmHg 65%
    13:00 +22°C° 0.2 mm 7 m/s 746 mmHg 64%
    14:00 +23°C° 0.2 mm 7 m/s 746 mmHg 64%
    15:00 +23°C° 0.2 mm 7 m/s 746 mmHg 64%
    16:00 +23°C° 0.1 mm 6 m/s 746 mmHg 66%
    17:00 +22°C° 0.1 mm 5 m/s 746 mmHg 68%
    18:00 +22°C° 0.1 mm 4 m/s 746 mmHg 70%
    19:00 +21°C° 0 mm 4 m/s 747 mmHg 75%
    20:00 +19°C° 0 mm 4 m/s 747 mmHg 80%
    21:00 +17°C° 0 mm 3 m/s 747 mmHg 85%
    22:00 +17°C° 0 mm 3 m/s 747 mmHg 87%
    23:00 +16°C° 0 mm 3 m/s 747 mmHg 90%

    21 Iulie, Duminică

    Timp Temperatura Precipitaţii Vânt Presiune Umiditate
    00:00 +14°C° 0 mm 3 m/s 747 mmHg 93%
    01:00 +14°C° 0 mm 3 m/s 748 mmHg 94%
    02:00 +14°C° 0 mm 3 m/s 748 mmHg 95%
    03:00 +14°C° 0 mm 3 m/s 748 mmHg 96%
    04:00 +14°C° 0 mm 3 m/s 748 mmHg 95%
    05:00 +14°C° 0 mm 3 m/s 748 mmHg 94%
    06:00 +14°C° 0 mm 3 m/s 748 mmHg 93%
    07:00 +17°C° 0 mm 4 m/s 748 mmHg 88%
    08:00 +18°C° 0 mm 4 m/s 748 mmHg 83%
    09:00 +20°C° 0 mm 4 m/s 748 mmHg 78%
    10:00 +21°C° 0 mm 4 m/s 748 mmHg 74%
    11:00 +22°C° 0 mm 4 m/s 748 mmHg 70%
    12:00 +23°C° 0 mm 4 m/s 748 mmHg 66%
    13:00 +23°C° 0.2 mm 4 m/s 748 mmHg 65%
    14:00 +23°C° 0.2 mm 4 m/s 748 mmHg 64%
    15:00 +23°C° 0.2 mm 5 m/s 747 mmHg 63%
    16:00 +23°C° 0.5 mm 4 m/s 747 mmHg 67%
    17:00 +22°C° 0.5 mm 4 m/s 747 mmHg 72%
    18:00 +22°C° 0.5 mm 4 m/s 747 mmHg 76%
    19:00 +21°C° 0.2 mm 3 m/s 747 mmHg 80%
    20:00 +19°C° 0.2 mm 3 m/s 747 mmHg 85%
    21:00 +18°C° 0.2 mm 2 m/s 747 mmHg 90%
    22:00 +17°C° 0 mm 2 m/s 747 mmHg 91%
    23:00 +16°C° 0 mm 2 m/s 747 mmHg 92%

    22 Iulie, Luni

    Timp Temperatura Precipitaţii Vânt Presiune Umiditate
    00:00 +16°C° 0 mm 2 m/s 747 mmHg 94%
    01:00 +15°C° 0 mm 2 m/s 747 mmHg 94%
    02:00 +15°C° 0 mm 2 m/s 747 mmHg 94%
    03:00 +15°C° 0 mm 2 m/s 747 mmHg 94%
    04:00 +15°C° 0 mm 2 m/s 747 mmHg 93%
    05:00 +15°C° 0 mm 2 m/s 747 mmHg 91%
    06:00 +15°C° 0 mm 2 m/s 747 mmHg 90%
    07:00 +16°C° 0 mm 2 m/s 748 mmHg 83%
    08:00 +18°C° 0 mm 2 m/s 748 mmHg 77%
    09:00 +19°C° 0 mm 2 m/s 748 mmHg 71%
    10:00 +20°C° 0 mm 3 m/s 748 mmHg 67%
    11:00 +21°C° 0 mm 3 m/s 748 mmHg 63%
    12:00 +22°C° 0 mm 4 m/s 748 mmHg 59%
    13:00 +22°C° 0.1 mm 4 m/s 748 mmHg 61%
    14:00 +23°C° 0.1 mm 4 m/s 747 mmHg 62%
    15:00 +23°C° 0.1 mm 4 m/s 747 mmHg 63%
    16:00 +22°C° 0.1 mm 4 m/s 747 mmHg 65%
    17:00 +22°C° 0.1 mm 3 m/s 747 mmHg 67%
    18:00 +22°C° 0.1 mm 3 m/s 747 mmHg 69%
    19:00 +20°C° 0.1 mm 2 m/s 747 mmHg 74%
    20:00 +19°C° 0.1 mm 2 m/s 747 mmHg 80%
    21:00 +17°C° 0.1 mm 2 m/s 747 mmHg 85%
    22:00 +17°C° 0 mm 2 m/s 747 mmHg 87%
    23:00 +16°C° 0 mm 2 m/s 747 mmHg 89%
    Arată mai mult